GW3283 Weather Reports


time (UTC)temp
C
wind
direction
speed
KPH
gust
KPH
rain 1hr
cm
rain 24hr
cm
rain mn
cm
humidity
%
barometer
mb
20260505040049 17 312 0.0 0.0 0.00 0.00 0.00 73 1004.4
20260505034519 18 312 0.0 0.0 0.00 0.00 0.00 73 1004.4
20260505033035 18 312 0.0 1.6 0.00 0.00 0.00 73 1004.6
20260505031512 18 312 0.0 1.6 0.00 0.00 0.00 72 1004.4
20260505030041 18 312 0.0 0.0 0.00 0.00 0.00 71 1004.3
20260505024510 18 312 0.0 1.6 0.00 0.00 0.00 71 1003.9
20260505023030 18 312 0.0 1.6 0.00 0.00 0.00 70 1003.8
20260505021512 19 312 0.0 0.0 0.00 0.00 0.00 69 1003.7
20260505020044 19 312 0.0 0.0 0.00 0.00 0.00 69 1003.7
20260505014530 20 312 0.0 0.0 0.00 0.00 0.00 68 1003.4
20260505013100 20 312 0.0 0.0 0.00 0.00 0.00 68 1003.3
20260505011530 20 312 0.0 1.6 0.00 0.00 0.00 68 1003.2
20260505010110 21 312 0.0 1.6 0.00 0.00 0.00 66 1003.1
20260505004513 22 312 0.0 0.0 0.00 0.00 0.00 64 1003.0
20260505003042 22 312 0.0 1.6 0.00 0.00 0.00 63 1003.0
20260505001514 23 312 1.6 4.8 0.00 0.00 0.00 61 1003.2
20260505000043 23 313 0.0 3.2 0.00 0.00 0.00 61 1003.1
20260504234511 24 313 0.0 1.6 0.00 0.00 0.00 58 1003.3
20260504233043 24 303 1.6 4.8 0.00 0.00 0.00 56 1003.4
20260504231505 25 300 0.0 4.8 0.00 0.00 0.00 55 1003.6
20260504230051 25 300 3.2 12.9 0.00 0.00 0.00 53 1003.8
20260504224552 25 292 1.6 6.4 0.00 0.00 0.00 52 1003.9
20260504223024 25 200 1.6 8.0 0.00 0.00 0.00 51 1003.9
20260504221551 25 331 3.2 9.7 0.00 0.00 0.00 51 1003.8
20260504220010 25 279 4.8 9.7 0.00 0.00 0.00 54 1004.0
20260504214542 25 246 3.2 12.9 0.00 0.00 0.00 50 1004.1
20260504213019 25 312 6.4 17.7 0.00 0.00 0.00 51 1004.2
20260504211541 25 64 3.2 14.5 0.00 0.00 0.00 49 1004.4
20260504210107 25 342 1.6 19.3 0.00 0.00 0.00 51 1004.6
20260504204523 25 271 3.2 14.5 0.00 0.00 0.00 50 1004.7
20260504203106 25 336 3.2 17.7 0.00 0.00 0.00 50 1004.9
20260504201528 25 347 4.8 14.5 0.00 0.00 0.00 51 1005.1
20260504200048 25 342 3.2 17.7 0.00 0.00 0.00 52 1005.5
20260504194513 25 297 4.8 19.3 0.00 0.00 0.00 50 1005.6
20260504193057 25 20 4.8 20.9 0.00 0.00 0.00 50 1005.9
20260504191523 26 311 4.8 12.9 0.00 0.00 0.00 49 1006.2
20260504190107 26 310 4.8 12.9 0.00 0.00 0.00 49 1006.2
20260504184509 27 52 4.8 19.3 0.00 0.00 0.00 49 1006.4
20260504183035 27 313 4.8 16.1 0.00 0.00 0.00 49 1006.5
20260504181558 27 334 4.8 12.9 0.00 0.00 0.00 49 1006.5
20260504180036 27 288 4.8 19.3 0.00 0.00 0.00 47 1006.7
20260504174601 26 204 3.2 16.1 0.00 0.00 0.00 45 1007.0
20260504174501 26 360 4.8 16.1 0.00 0.00 0.00 48 1006.9
20260504173027 27 302 6.4 16.1 0.00 0.00 0.00 47 1007.1
20260504171508 27 252 4.8 16.1 0.00 0.00 0.00 44 1007.3
20260504081607 15 234 0.0 4.8 0.00 0.00 0.00 74 1008.6
20260504081503 15 234 0.0 4.8 0.00 0.00 0.00 75 1008.6
20260504060113 16 221 0.0 0.0 0.00 0.00 0.00 75 1009.6
20260504044516 16 221 0.0 0.0 0.00 0.00 0.00 73 1009.6
20260504043056 16 221 0.0 0.0 0.00 0.00 0.00 72 1009.7
20260504041514 17 221 0.0 0.0 0.00 0.00 0.00 72 1009.7